This is the latest recevied weather packets stored in our database for station/object K1BES. If no packets are shown the sender has not sent any weather packets the latest 10 day(s).
| Time | Temp. | Humidity | Pressure | Rain* | Wind** | Luminosity | Snow |
|---|---|---|---|---|---|---|---|
| 1788013950 | 33.33° C | 66% | 1020.4 hPa | 0 mm | - | 632 W/m² | - |
| 1788013645 | 33.33° C | 66% | 1020.2 hPa | 0 mm | - | 613 W/m² | - |
| 1788013339 | 32.78° C | 67% | 1020.3 hPa | 0 mm | - | 590 W/m² | - |
| 1788013040 | 32.78° C | 65% | 1020.2 hPa | 0 mm | - | 574 W/m² | - |
| 1788012733 | 32.78° C | 68% | 1019.9 hPa | 0 mm | - | 552 W/m² | - |
| 1788012429 | 32.78° C | 68% | 1019.9 hPa | 0 mm | - | 535 W/m² | - |
| 1788012128 | 32.22° C | 69% | 1020 hPa | 0 mm | - | 513 W/m² | - |
| 1788011828 | 32.22° C | 68% | 1019.7 hPa | 0 mm | - | 495 W/m² | - |
| 1788011526 | 32.22° C | 69% | 1019.5 hPa | 0 mm | - | 474 W/m² | - |
| 1788011222 | 32.22° C | 68% | 1019.8 hPa | 0 mm | - | 453 W/m² | - |
| 1788010921 | 32.22° C | 70% | 1019.7 hPa | 0 mm | - | 433 W/m² | - |
| 1788010615 | 31.11° C | 73% | 1019.7 hPa | 0 mm | - | 412 W/m² | - |
| 1788010314 | 30.56° C | 74% | 1019.5 hPa | 0 mm | - | 391 W/m² | - |
| 1788010009 | 30.56° C | 73% | 1019.7 hPa | 0 mm | - | 145 W/m² | - |
| 1788009708 | 30.56° C | 73% | 1019.7 hPa | 0 mm | - | 69 W/m² | - |
| 1788009407 | 30.56° C | 74% | 1019.6 hPa | 0 mm | - | 227 W/m² | - |
| 1788009102 | 30° C | 76% | 1019.6 hPa | 0 mm | - | 291 W/m² | - |
| 1788008798 | 30° C | 77% | 1019.8 hPa | 0 mm | - | 239 W/m² | - |
| 1788008497 | 29.44° C | 77% | 1019.6 hPa | 0 mm | - | 234 W/m² | - |
| 1788008195 | 29.44° C | 78% | 1019.6 hPa | 0 mm | - | 84 W/m² | - |
| 1788007893 | 28.89° C | 79% | 1019.7 hPa | 0 mm | - | 151 W/m² | - |
| 1788007592 | 28.33° C | 82% | 1019.5 hPa | 0 mm | - | 205 W/m² | - |
| 1788007292 | 27.78° C | 82% | 1019.7 hPa | 0 mm | - | 110 W/m² | - |
| 1788006987 | 27.22° C | 84% | 1019.9 hPa | 0 mm | - | 102 W/m² | - |
| 1788006687 | 26.67° C | 85% | 1019.8 hPa | 0 mm | - | 108 W/m² | - |
* Rain latest hour (hover to see other rain measurements)
** Current wind speed in m/s (hover to see current wind gust speed)